SQ2CET-13 Weather Reports


time (UTC)temp
C
wind
direction
speed
KPH
gust
KPH
rain 1hr
cm
rain 24hr
cm
rain mn
cm
humidity
%
barometer
mb
20260507101053 9 333 8.0 19.3 0.00 0.38 0.00 72 1015.8
20260507100056 9 298 3.2 11.3 0.00 0.41 0.00 75 1015.6
20260507095113 8 334 4.8 11.3 0.00 0.41 0.00 76 1015.6
20260507094033 8 352 1.6 12.9 0.00 0.41 0.00 78 1015.7
20260507093158 7 339 6.4 14.5 0.00 0.41 0.00 80 1015.7
20260507092115 7 350 8.0 14.5 0.00 0.41 0.00 82 1015.6
20260507091033 7 317 3.2 14.5 0.00 0.41 0.00 84 1015.4
20260507090056 7 300 1.6 14.5 0.00 0.41 0.00 84 1015.4
20260507085122 7 315 3.2 11.3 0.00 0.43 0.00 86 1015.2
20260507084040 7 261 1.6 9.7 0.00 0.46 0.00 87 1015.0
20260507083057 7 311 4.8 11.3 0.00 0.46 0.00 87 1015.0
20260507082121 7 303 4.8 11.3 0.00 0.46 0.00 87 1015.0
20260507081032 7 303 1.6 12.9 0.00 0.46 0.00 87 1014.8
20260507080057 6 319 4.8 9.7 0.00 0.46 0.00 88 1014.8
20260507075120 6 333 4.8 17.7 0.00 0.46 0.00 87 1014.6
20260507074040 6 325 3.2 14.5 0.00 0.46 0.00 88 1014.6
20260507073104 6 315 3.2 8.0 0.00 0.48 0.00 88 1014.6
20260507072045 6 337 3.2 12.9 0.00 0.48 0.00 89 1014.4
20260507071050 6 330 4.8 11.3 0.00 0.48 0.00 90 1014.5
20260507070112 6 310 1.6 6.4 0.00 0.48 0.00 92 1014.4
20260507065032 5 335 3.2 9.7 0.00 0.48 0.00 93 1014.2
20260507064116 5 312 3.2 12.9 0.00 0.48 0.00 95 1014.2
20260507063120 5 336 4.8 14.5 0.00 0.48 0.00 96 1014.1
20260507062040 5 322 4.8 9.7 0.00 0.48 0.00 96 1014.0
20260507061104 5 306 3.2 11.3 0.00 0.48 0.00 97 1014.1
20260507060024 5 306 3.2 12.9 0.00 0.48 0.00 97 1014.0
20260507055129 5 347 4.8 9.7 0.00 0.48 0.00 97 1013.8
20260507054117 5 300 3.2 6.4 0.00 0.48 0.00 97 1013.6
20260507053028 5 327 3.2 8.0 0.00 0.48 0.00 97 1013.4
20260507052041 5 302 3.2 8.0 0.00 0.48 0.00 97 1013.4
20260507051104 5 320 4.8 14.5 0.00 0.48 0.00 97 1013.3
20260507050023 5 335 4.8 11.3 0.00 0.48 0.00 97 1013.1
20260507045108 5 324 4.8 12.9 0.00 0.48 0.00 97 1013.1
20260507044114 5 331 3.2 14.5 0.00 0.48 0.00 97 1013.0
20260507043032 5 324 3.2 16.1 0.00 0.48 0.00 97 1012.7
20260507042056 5 318 3.2 9.7 0.00 0.48 0.00 97 1012.6
20260507041120 5 325 3.2 16.1 0.00 0.48 0.00 97 1012.6
20260507040040 5 326 4.8 11.3 0.00 0.48 0.00 97 1012.6
20260507035105 5 312 1.6 8.0 0.00 0.48 0.00 97 1012.6
20260507034044 5 307 3.2 11.3 0.00 0.48 0.00 97 1012.5
20260507033048 5 309 4.8 11.3 0.00 0.48 0.00 97 1012.6
20260507032134 5 321 4.8 8.0 0.00 0.48 0.00 97 1012.5
20260507031052 5 317 3.2 9.7 0.00 0.48 0.00 97 1012.5
20260507030116 5 352 4.8 8.0 0.00 0.48 0.00 97 1012.6
20260507025119 5 350 4.8 8.0 0.00 0.48 0.00 97 1012.4
20260507024040 5 320 3.2 11.3 0.00 0.48 0.00 97 1012.3
20260507023105 5 353 4.8 12.9 0.00 0.48 0.00 97 1012.4
20260507022044 5 11 3.2 9.7 0.00 0.48 0.00 97 1012.3
20260507021048 5 322 3.2 9.7 0.00 0.48 0.00 97 1012.4
20260507020112 5 334 3.2 8.0 0.00 0.48 0.00 97 1012.3
20260507015033 5 358 3.2 12.9 0.00 0.48 0.00 97 1012.2
20260507014056 5 355 3.2 14.5 0.00 0.48 0.00 97 1012.4
20260507013120 5 349 3.2 11.3 0.00 0.48 0.00 97 1012.2
20260507012041 5 353 3.2 6.4 0.00 0.48 0.00 97 1012.2
20260507011104 5 2 1.6 6.4 0.00 0.48 0.00 97 1012.0
20260507010024 5 250 1.6 4.8 0.00 0.48 0.00 97 1011.9
20260507005047 5 346 4.8 12.9 0.00 0.48 0.00 97 1011.7
20260507004154 5 333 3.2 9.7 0.00 0.48 0.00 97 1011.7
20260507003032 5 318 1.6 6.4 0.00 0.48 0.00 97 1011.8
20260507002056 5 317 3.2 8.0 0.00 0.48 0.00 97 1011.7
20260507001120 5 330 4.8 9.7 0.00 0.48 0.00 97 1011.6
20260507000040 5 308 3.2 6.4 0.00 0.48 0.00 97 1011.4
20260506235104 5 297 1.6 12.9 0.00 0.48 0.48 97 1011.3
20260506234024 5 327 1.6 9.7 0.00 0.48 0.48 97 1011.5
20260506233049 5 339 6.4 16.1 0.00 0.48 0.48 97 1011.7
20260506232112 5 308 3.2 9.7 0.00 0.48 0.48 97 1011.6
20260506231032 5 325 3.2 14.5 0.00 0.48 0.48 97 1011.8
20260506230056 5 338 4.8 14.5 0.00 0.48 0.48 97 1011.7
20260506225120 5 78 3.2 8.0 0.00 0.48 0.48 97 1011.7
20260506224040 5 9 3.2 11.3 0.03 0.48 0.48 97 1011.9
20260506223104 5 344 3.2 16.1 0.03 0.48 0.48 97 1011.7
20260506222104 5 16 4.8 14.5 0.03 0.48 0.48 97 1011.6
20260506221049 5 316 3.2 12.9 0.00 0.46 0.46 97 1011.4
20260506220112 5 9 3.2 9.7 0.00 0.46 0.46 97 1011.3
20260506215033 5 340 1.6 9.7 0.00 0.46 0.46 97 1011.2
20260506214057 5 346 3.2 9.7 0.00 0.46 0.46 97 1011.2
20260506213120 5 356 3.2 8.0 0.00 0.46 0.46 97 1011.3
20260506212040 5 339 4.8 12.9 0.00 0.46 0.46 96 1011.3
20260506211104 5 344 3.2 12.9 0.00 0.46 0.46 96 1011.3
20260506210024 5 343 1.6 12.9 0.00 0.46 0.46 96 1011.2
20260506205109 5 25 3.2 8.0 0.00 0.46 0.46 96 1011.1
20260506204113 5 346 3.2 11.3 0.00 0.46 0.46 96 1011.0
20260506203017 5 35 4.8 14.5 0.00 0.46 0.46 97 1010.9
20260506202042 5 21 3.2 9.7 0.03 0.46 0.46 96 1010.9
20260506201104 5 15 4.8 8.0 0.03 0.46 0.46 96 1010.7
20260506200026 5 15 4.8 12.9 0.03 0.46 0.46 96 1010.9
20260506195052 5 342 1.6 11.3 0.03 0.46 0.46 96 1010.9
20260506194112 5 8 6.4 17.7 0.05 0.46 0.46 96 1010.8
20260506193032 5 353 4.8 12.9 0.05 0.46 0.46 96 1011.1
20260506192050 5 9 4.8 11.3 0.03 0.43 0.43 96 1011.0
20260506191113 5 8 6.4 20.9 0.05 0.43 0.43 96 1010.9
20260506190034 5 325 3.2 9.7 0.05 0.43 0.43 96 1010.8
20260506185041 5 322 1.6 11.3 0.05 0.41 0.41 96 1010.6
20260506184106 5 5 3.2 12.9 0.05 0.41 0.41 96 1010.7
20260506183027 5 31 3.2 11.3 0.05 0.41 0.41 96 1010.5
20260506182049 5 359 3.2 11.3 0.05 0.41 0.41 96 1010.4
20260506181113 5 22 3.2 8.0 0.05 0.41 0.41 96 1010.3
20260506180032 5 2 4.8 8.0 0.05 0.38 0.38 96 1010.2
20260506175056 5 150 4.8 20.9 0.05 0.36 0.36 96 1010.2
20260506174113 5 25 3.2 8.0 0.05 0.36 0.36 96 1010.2
20260506173053 5 347 3.2 16.1 0.03 0.36 0.36 96 1010.2
20260506172057 5 325 3.2 12.9 0.05 0.36 0.36 96 1010.2
20260506171121 5 358 3.2 11.3 0.05 0.33 0.33 95 1010.1
20260506170032 5 17 3.2 14.5 0.05 0.33 0.33 95 1010.2
20260506165054 5 25 3.2 14.5 0.05 0.33 0.33 95 1010.0
20260506164135 6 4 3.2 12.9 0.05 0.33 0.33 95 1010.0
20260506163036 5 324 3.2 11.3 0.05 0.33 0.33 95 1009.9
20260506162058 5 211 3.2 19.3 0.05 0.30 0.30 95 1009.9
20260506161122 5 291 4.8 9.7 0.05 0.28 0.28 95 1010.1
20260506160044 5 22 3.2 11.3 0.05 0.28 0.28 95 1010.1
20260506155100 5 1 3.2 9.7 0.05 0.28 0.28 95 1010.0
20260506154124 6 338 4.8 9.7 0.05 0.28 0.28 95 1010.1
20260506153044 6 31 3.2 20.9 0.05 0.25 0.25 94 1010.1
20260506152118 5 322 1.6 8.0 0.05 0.25 0.25 94 1010.0
20260506151120 6 344 3.2 8.0 0.05 0.25 0.23 94 1009.9
20260506150040 6 339 3.2 16.1 0.03 0.23 0.23 93 1010.0
20260506145110 6 21 3.2 14.5 0.03 0.23 0.23 93 1010.1
20260506144106 6 9 6.4 22.5 0.03 0.23 0.23 93 1010.1
20260506143026 6 346 3.2 17.7 0.03 0.23 0.23 92 1010.2
20260506142109 6 27 4.8 16.1 0.00 0.23 0.20 92 1010.2
20260506141114 6 324 4.8 9.7 0.00 0.20 0.20 92 1010.2
20260506140143 6 7 3.2 17.7 0.00 0.20 0.20 91 1010.1
20260506135040 6 219 3.2 11.3 0.00 0.20 0.20 91 1010.0
20260506134104 6 341 4.8 14.5 0.00 0.20 0.20 90 1009.8
20260506133044 6 26 4.8 14.5 0.00 0.20 0.20 88 1009.8
20260506132112 6 181 4.8 16.1 0.00 0.20 0.20 88 1009.8
20260506131112 6 21 3.2 16.1 0.00 0.20 0.20 88 1009.6
20260506130033 6 351 6.4 17.7 0.00 0.20 0.20 89 1009.7
20260506125118 6 16 6.4 17.7 0.00 0.20 0.20 90 1009.7
20260506124159 6 40 4.8 12.9 0.00 0.20 0.20 92 1009.7
20260506123040 5 140 4.8 16.1 0.00 0.20 0.20 93 1009.8
20260506122104 5 41 3.2 19.3 0.00 0.20 0.20 93 1009.8
20260506121024 5 316 4.8 17.7 0.00 0.20 0.20 93 1009.8
20260506120050 5 226 6.4 14.5 0.00 0.20 0.20 94 1009.8
20260506115113 5 213 4.8 9.7 0.00 0.20 0.20 94 1009.8
20260506114034 5 351 6.4 16.1 0.00 0.20 0.20 95 1009.8
20260506113057 6 9 6.4 14.5 0.03 0.20 0.20 95 1010.0
20260506112105 5 29 4.8 16.1 0.05 0.20 0.20 95 1009.9
20260506111026 6 12 4.8 9.7 0.08 0.20 0.20 95 1010.0
20260506110050 6 260 3.2 12.9 0.10 0.20 0.20 96 1009.9
20260506105114 5 24 3.2 17.7 0.10 0.20 0.18 96 1010.0
20260506104034 5 17 4.8 16.1 0.10 0.20 0.18 96 1010.2
20260506103059 6 8 6.4 11.3 0.10 0.18 0.18 95 1010.4
20260506102113 6 10 4.8 14.5 0.05 0.15 0.15 95 1010.5